Location: Spruce Knob
(38.6995°N, 79.5330°W)
Time: 12:47:58
(UTC-05:00)

Envisat - Pass Details

Date: 02 December 2021
Orbit: 764 x 766 km, 98.2° (Epoch: 23 January)

Event Time Altitude Azimuth Distance (km) Brightness Sun altitude
Rises 18:02:54 0° 222° (SW) 3,217 7.3 -12.7°
Reaches altitude 10° 18:08:00 10° 266° (W) 2,300 6.8 -13.6°
Maximum altitude 18:08:25 10° 271° (W) 2,294 6.7 -13.7°
Drops below altitude 10° 18:08:51 10° 276° (W) 2,301 6.6 -13.8°
Sets 18:13:59 0° 321° (NW) 3,236 6.5 -14.8°
